Find Starlink 36930

NORAD ID: 68018 Int'l Des: 2026-040 Owner: SPXS Country: US Constellation: starlink operational
LEOCIRCULARRETROGRADE

リアルタイム位置

3D地球を読み込み中...

Starlink 36930について

説明を読み込み中...

次回通過

Passes for default location (London). Set your location on the main map for personalized predictions.

高度履歴

Loading altitude history...

軌道要素

1 68018U 26040D 26106.43443428 .00015292 00000-0 47493-3 0 9991
2 68018 97.2851 55.9321 0001604 94.8359 265.3067 15.33451403 7242
Epoch: Apr 16, 2026 • Age: 15 hours

現在のステータス

高度 492.5 km
速度 7.62 km/s
衛星直下点 -69.52°S, 12.72°W
打ち上げ日 Mar 1, 2026
運用期間 0.1 years
タイプ internet

技術仕様

分類 Payload
質量 575.00 kg
乾燥質量 530.00 kg
総質量 575.00 kg
長さ 0.30 m
直径 4.10 m
スパン 29.00 m
形状 Box + pan
製造者 SPXS
バスタイプ Starlink V2MO
フェーズステータス In Orbit
所有者/国 SPXS/US

Most Searched